sat.trackr.live / text

‹ back to catalog

STARLINK-5849

NORAD 55924 · 2023-037L

PAYLOAD ACTIVE UNKNOWN

§ Identity

Operator
Country
US
Launch date
2023-03-17
Launch site
AFWTR
Launch vehicle
Mass (kg)
RCS (m²)

Purposes: comms

External: N2YO · Heavens-Above · Gunter

§ Orbital elements

Epoch: 2026-05-25T02:44:42.851040Z

Period
96.11 min
Inclination
69.9998°
Eccentricity
0.0003156
Mean motion
14.98331767 rev/d
Perigee alt
569.9 km
Apogee alt
574.2 km
Semi-major
6,950.2 km
B*
-2.1649e-5
RAAN
91.9333°
Arg perigee
266.2994°
Mean anomaly
93.7804°
Rev number
17,542

§ Raw data

STARLINK-58491 55924U 23037L   26145.11438485 -.00000351  00000+0 -21649-4 0  99982 55924  69.9998  91.9333 0003156 266.2994  93.7804 14.98331767175427

JSON: /api/v1/satellites/55924 · /tle

For live sub-satellite position, see the globe view (requires WebGL).

§ Visibility from observer

Set your observer location to see the next 7 days of passes ≥ 10°. The values pass through the URL so the page stays shareable.

No JS? Fill the form by hand. The geolocation button needs JavaScript.